Weather observations for the past three days for
Houston Executive Airport
Imperial (Metric)
Date Time (cdt) Wind (mph) Vis. (mi.) Weather Sky Cond. Temperature (ºF) Relative Humidity Wind Chill (°F) Heat Index (°F) Pressure Precipitation (in)
Air Dwpt 6 hour altimeter (in) sea level (mb) 1 hr 3 hr 6 hr
Max. Min.
17 06:15 Calm 7.00 Fair CLR 75.2 75.2 100% 73 30 0.0
17 05:55 Calm 9.00 Fair CLR 75.2 75.2 100% 73 30 0.0
17 05:35 Calm 6.00 Fog/Mist CLR 75.2 75.2 100% 73 30 0.0
17 05:15 Calm 9.00 Fair CLR 75.2 75.2 100% 73 30.01 0.0
17 04:55 Calm 10.00 Fair CLR 78.8 78.8 100% 83 30 0.0
17 04:35 SW 3 10.00 Fair CLR 78.8 78.8 100% 83 30 0.0
17 03:55 S 5 10.00 Fair CLR 78.8 78.8 100% 83 29.98 0.0
17 03:35 S 5 10.00 Fair CLR 78.8 78.8 100% 83 29.98 0.0
17 03:15 S 5 10.00 Fair CLR 78.8 78.8 100% 83 29.98 0.0
17 02:55 S 6 10.00 Fair CLR 78.8 78.8 100% 83 29.98 0.0
17 02:35 S 5 10.00 Fair CLR 78.8 78.8 100% 83 29.98 0.0
17 02:15 Calm 10.00 Fair CLR 80.6 78.8 94% 88 29.99 0.0
17 01:55 Calm 10.00 Fair CLR 78.8 78.8 100% 83 29.99 0.0
17 01:35 Calm 10.00 Fair CLR 80.6 78.8 94% 88 29.99 0.0
17 01:15 S 5 10.00 Fair CLR 78.8 78.8 100% 83 29.98 0.0
17 00:55 S 5 10.00 Fair CLR 80.6 78.8 94% 88 29.98 0.0
17 00:35 S 7 10.00 Fair CLR 80.6 78.8 94% 88 29.98 0.0
17 00:15 S 8 10.00 Fair CLR 80.6 78.8 94% 88 29.98 0.0
16 23:55 S 7 10.00 Fair CLR 80.6 78.8 94% 88 29.98 0.0
16 23:35 S 8 10.00 Fair CLR 80.6 78.8 94% 88 29.98 0.0
16 23:15 S 8 10.00 Fair CLR 80.6 78.8 94% 88 29.97 0.0
16 22:55 S 8 10.00 Fair CLR 82.4 78.8 89% 92 29.98 0.0
16 22:35 S 7 10.00 Fair CLR 82.4 78.8 89% 92 29.98 0.0
16 22:15 S 8 10.00 Fair CLR 82.4 78.8 89% 92 29.97 0.0
16 21:55 S 8 10.00 A Few Clouds FEW039 FEW049 84.2 80.6 89% 98 29.97 0.0
16 21:35 S 10 10.00 Partly Cloudy SCT039 SCT048 84.2 78.8 84% 96 29.96 0.0
16 21:15 S 8 G 17 10.00 Fair CLR 84.2 78.8 84% 96 29.95 0.0
16 20:55 S 10 10.00 Fair CLR 86 78.8 79% 99 29.95 0.0
16 20:35 S 9 10.00 A Few Clouds FEW037 86 78.8 79% 99 29.95 0.0
16 20:15 S 13 10.00 Fair CLR 87.8 78.8 75% 102 29.95 0.0
16 19:55 SW 9 10.00 Fair CLR 89.6 77 67% 103 29.94 0.0
16 19:35 SW 10 10.00 A Few Clouds FEW042 89.6 77 67% 103 29.94 0.0
16 19:15 SW 12 10.00 Partly Cloudy SCT040 91.4 78.8 67% 108 29.93 0.0
16 18:55 SW 12 10.00 Fair CLR 91.4 78.8 67% 108 29.93 0.0
16 18:35 SW 12 10.00 Fair CLR 93.2 78.8 63% 110 29.93 0.0
16 18:15 SW 10 10.00 A Few Clouds FEW050 FEW070 93.2 78.8 63% 110 29.93 0.0
16 17:55 SW 13 10.00 Mostly Cloudy SCT050 BKN070 93.2 77 59% 107 29.93 0.0
16 17:35 S 6 10.00 A Few Clouds FEW050 95 77 56% 110 29.93 0.0
16 17:15 S 8 10.00 Fair CLR 95 75.2 53% 107 29.93 0.0
16 16:55 S 7 9.00 Fair CLR 95 73.4 50% 105 29.94 0.0
16 16:35 S 9 8.00 A Few Clouds FEW050 95 75.2 53% 107 29.94 0.0
16 16:15 S 5 G 14 10.00 Fair CLR 95 75.2 53% 107 29.95 0.0
16 15:55 S 6 G 12 9.00 Fair CLR 95 73.4 50% 105 29.96 0.0
16 15:35 Vrbl 7 7.00 Fair CLR 95 73.4 50% 105 29.96 0.0
16 15:15 S 9 9.00 A Few Clouds FEW050 95 75.2 53% 107 29.98 0.0
16 14:55 SW 8 8.00 A Few Clouds FEW049 FEW060 95 75.2 53% 107 29.99 0.0
16 14:35 Vrbl 5 G 12 9.00 A Few Clouds FEW045 FEW060 93.2 75.2 56% 105 29.99 0.0
16 14:15 SW 5 10.00 Partly Cloudy SCT055 93.2 77 59% 107 29.99 0.0
16 13:55 SW 7 10.00 Partly Cloudy FEW043 SCT050 SCT055 93.2 77 59% 107 30 0.0
16 13:35 W 7 10.00 Mostly Cloudy SCT042 BKN055 91.4 77 63% 105 30 0.0
16 13:15 SW 8 9.00 Partly Cloudy SCT040 SCT045 SCT060 91.4 78.8 67% 108 30.01 0.0
16 12:55 SW 6 10.00 Partly Cloudy SCT037 93.2 78.8 63% 110 30.01 0.0
16 12:35 W 5 G 12 10.00 Partly Cloudy SCT034 91.4 78.8 67% 108 30.02 0.0
16 12:15 W 9 10.00 Fair CLR 91.4 78.8 67% 108 30.01 0.0
16 11:55 SW 9 10.00 Partly Cloudy SCT031 91.4 78.8 67% 108 30.02 0.0
16 11:35 W 10 10.00 Mostly Cloudy BKN030 91.4 78.8 67% 108 30.02 0.0
16 11:15 W 8 10.00 Mostly Cloudy BKN028 89.6 78.8 71% 105 30.02 0.0
16 10:55 Vrbl 7 10.00 Partly Cloudy SCT025 89.6 78.8 71% 105 30.02 0.0
16 10:35 SW 8 10.00 Partly Cloudy SCT023 89.6 78.8 71% 105 30.02 0.0
16 10:15 SW 8 9.00 Partly Cloudy SCT021 87.8 78.8 75% 102 30.02 0.0
16 09:55 W 9 10.00 A Few Clouds FEW019 87.8 80.6 79% 105 30.02 0.0
16 09:35 SW 8 9.00 Fair CLR 86 80.6 84% 102 30.02 0.0
16 09:15 SW 9 9.00 Fair CLR 86 80.6 84% 102 30.03 0.0
16 08:55 SW 8 9.00 Fair CLR 84.2 80.6 89% 98 30.03 0.0
16 08:35 SW 5 8.00 Fair CLR 82.4 78.8 89% 92 30.03 0.0
16 08:15 S 6 8.00 Fair CLR 80.6 78.8 94% 88 30.03 0.0
16 07:55 S 5 8.00 Fair CLR 80.6 78.8 94% 88 30.03 0.0
16 07:35 Calm 7.00 Fair CLR 78.8 77 94% 83 30.03 0.0
16 07:15 S 5 7.00 Fair CLR 77 77 100% 78 30.02 0.0
16 06:55 S 5 6.00 Fog/Mist CLR 75.2 75.2 100% 73 30.02 0.0
16 06:35 S 6 7.00 Fair CLR 75.2 75.2 100% 73 30.02 0.0
16 06:15 S 5 8.00 Fair CLR 75.2 75.2 100% 73 30.01 0.0
16 05:55 S 5 8.00 Fair CLR 75.2 75.2 100% 73 30.01 0.0
16 05:35 S 3 8.00 Fair CLR 75.2 75.2 100% 73 30.01 0.0
16 05:15 S 3 8.00 Fair CLR 75.2 75.2 100% 73 30.01 0.0
16 04:55 S 5 8.00 Fair CLR 75.2 75.2 100% 73 30 0.0
16 04:35 S 3 8.00 Fair CLR 75.2 75.2 100% 73 30 0.0
16 04:15 S 5 8.00 Fair CLR 75.2 75.2 100% 73 30 0.0
16 03:55 Calm 8.00 Fair CLR 75.2 75.2 100% 73 29.99 0.0
16 03:35 Calm 7.00 Fair CLR 77 77 100% 78 29.99 0.0
16 03:15 SW 6 9.00 Fair CLR 77 77 100% 78 29.99 0.0
16 02:55 SW 7 9.00 Fair CLR 77 77 100% 78 29.99 0.0
16 02:35 SW 7 8.00 Fair CLR 77 77 100% 78 29.99 0.0
16 02:15 SW 8 8.00 Fair CLR 77 77 100% 78 29.99 0.0
16 01:55 SW 8 9.00 Fair CLR 78.8 77 94% 83 29.99 0.0
16 01:35 SW 8 9.00 Fair CLR 78.8 78.8 100% 83 29.99 0.0
16 01:15 S 8 9.00 Fair CLR 78.8 78.8 100% 83 29.99 0.0
16 00:55 S 8 10.00 Fair CLR 78.8 78.8 100% 83 29.99 0.0
16 00:35 S 7 9.00 Fair CLR 78.8 78.8 100% 83 29.99 0.0
16 00:15 S 8 10.00 Fair CLR 78.8 78.8 100% 83 29.99 0.0
15 23:55 S 8 10.00 Fair CLR 80.6 78.8 94% 88 30 0.0
15 23:35 S 8 10.00 Fair CLR 80.6 78.8 94% 88 29.99 0.0
15 23:15 S 7 10.00 Fair CLR 80.6 78.8 94% 88 29.99 0.0
15 22:55 S 7 10.00 Fair CLR 80.6 78.8 94% 88 29.99 0.0
15 22:35 S 6 10.00 Fair CLR 80.6 78.8 94% 88 29.99 0.0
15 22:15 S 7 10.00 Fair CLR 82.4 78.8 89% 92 29.99 0.0
15 21:55 S 7 10.00 Fair CLR 82.4 78.8 89% 92 29.98 0.0
15 21:35 S 8 10.00 Fair CLR 82.4 78.8 89% 92 29.98 0.0
15 21:15 S 7 10.00 Fair CLR 84.2 80.6 89% 98 29.98 0.0
15 20:55 S 10 9.00 Fair CLR 84.2 80.6 89% 98 29.98 0.0
15 20:35 SW 10 9.00 Fair CLR 86 80.6 84% 102 29.97 0.0
15 20:15 S 15 8.00 Fair CLR 86 78.8 79% 99 29.97 0.0
15 19:55 S 13 8.00 Fair CLR 87.8 78.8 75% 102 29.97 0.0
15 19:35 S 10 G 18 9.00 Fair CLR 87.8 77 70% 100 29.97 0.0
15 19:15 S 10 9.00 Fair CLR 89.6 77 67% 103 29.97 0.0
15 18:55 S 9 G 16 9.00 Fair CLR 89.6 77 67% 103 29.97 0.0
15 18:35 SW 12 9.00 A Few Clouds FEW044 91.4 77 63% 105 29.97 0.0
15 18:15 S 12 9.00 A Few Clouds FEW044 91.4 75.2 59% 103 29.97 0.0
15 17:55 S 9 9.00 Fair CLR 91.4 75.2 59% 103 29.97 0.0
15 17:35 SW 13 8.00 Fair CLR 93.2 75.2 56% 105 29.98 0.0
15 17:15 SW 10 8.00 A Few Clouds FEW047 93.2 75.2 56% 105 29.98 0.0
15 16:55 S 9 8.00 Partly Cloudy SCT046 SCT050 93.2 75.2 56% 105 29.99 0.0
15 16:35 S 7 8.00 Partly Cloudy SCT047 93.2 75.2 56% 105 29.99 0.0
15 16:15 SW 9 8.00 Fair CLR 93.2 75.2 56% 105 30 0.0
15 15:55 SW 9 9.00 Fair CLR 93.2 75.2 56% 105 30.01 0.0
15 15:35 SW 7 G 14 8.00 Fair CLR 93.2 77 59% 107 30.02 0.0
15 15:15 Calm 9.00 A Few Clouds FEW044 93.2 75.2 56% 105 30.02 0.0
15 14:55 W 7 G 14 9.00 A Few Clouds FEW045 93.2 75.2 56% 105 30.03 0.0
15 14:35 Vrbl 5 G 12 9.00 Fair CLR 93.2 75.2 56% 105 30.04 0.0
15 14:15 SW 7 9.00 Fair CLR 91.4 73.4 56% 100 30.05 0.0
15 13:55 SW 10 9.00 Fair CLR 93.2 71.6 50% 101 30.05 0.0
15 13:35 SW 10 9.00 Fair CLR 91.4 73.4 56% 100 30.06 0.0
15 13:15 Vrbl 7 9.00 A Few Clouds FEW036 91.4 77 63% 105 30.07 0.0
15 12:55 SW 5 G 12 9.00 A Few Clouds FEW036 91.4 77 63% 105 30.07 0.0
15 12:35 SW 8 9.00 A Few Clouds FEW032 FEW038 FEW044 91.4 77 63% 105 30.08 0.0
15 12:15 Vrbl 7 9.00 Partly Cloudy FEW031 SCT039 SCT050 91.4 77 63% 105 30.08 0.0
15 11:55 W 5 9.00 Mostly Cloudy FEW029 SCT044 BKN050 87.8 77 70% 100 30.09 0.0
15 11:35 W 7 9.00 Partly Cloudy FEW025 SCT030 SCT038 87.8 78.8 75% 102 30.09 0.0
15 11:15 W 9 9.00 Mostly Cloudy SCT025 BKN029 BKN040 87.8 78.8 75% 102 30.1 0.0
15 10:55 SW 8 9.00 Partly Cloudy SCT023 SCT029 89.6 78.8 71% 105 30.1 0.0
15 10:35 SW 6 9.00 Mostly Cloudy BKN021 BKN029 87.8 78.8 75% 102 30.11 0.0
15 10:15 W 8 9.00 Partly Cloudy SCT019 87.8 80.6 79% 105 30.11 0.0
15 09:55 SW 8 9.00 Partly Cloudy SCT017 86 80.6 84% 102 30.11 0.0
15 09:35 W 12 8.00 Mostly Cloudy BKN017 86 80.6 84% 102 30.11 0.0
15 09:15 SW 9 9.00 A Few Clouds FEW018 86 80.6 84% 102 30.11 0.0
15 08:55 SW 7 9.00 A Few Clouds FEW020 86 80.6 84% 102 30.11 0.0
15 08:35 SW 5 9.00 Fair CLR 84.2 80.6 89% 98 30.11 0.0
15 08:15 SW 3 7.00 Fair CLR 82.4 80.6 94% 94 30.1 0.0
15 07:55 Calm 7.00 Fair CLR 80.6 80.6 100% 89 30.1 0.0
15 07:35 Calm 7.00 A Few Clouds FEW026 FEW034 78.8 78.8 100% 83 30.1 0.0
15 07:15 Calm 5.00 Fog/Mist BKN026 BKN034 77 77 100% 78 30.1 0.0
15 06:55 Calm 3.00 Fog/Mist SCT025 75.2 75.2 100% 73 30.09 0.0
15 06:35 Calm 4.00 Fog/Mist FEW025 75.2 75.2 100% 73 30.09 0.0
15 06:15 Calm 6.00 Fog/Mist CLR 77 77 100% 78 30.08 0.0
15 05:55 Calm 7.00 Fair CLR 77 77 100% 78 30.08 0.0
15 05:35 Calm 8.00 Fair CLR 78.8 78.8 100% 83 30.07 0.0
15 05:15 Calm 8.00 Fair CLR 78.8 78.8 100% 83 30.07 0.0
15 04:55 S 3 7.00 Fair CLR 78.8 78.8 100% 83 30.07 0.0
15 04:35 S 5 8.00 Fair CLR 78.8 78.8 100% 83 30.06 0.0
15 04:15 S 5 9.00 Fair CLR 78.8 78.8 100% 83 30.06 0.0
15 03:55 S 6 9.00 Fair CLR 78.8 78.8 100% 83 30.06 0.0
15 03:35 S 6 9.00 Fair CLR 78.8 78.8 100% 83 30.06 0.0
15 03:15 S 5 8.00 Fair CLR 78.8 78.8 100% 83 30.07 0.0
15 02:55 S 6 9.00 Fair CLR 78.8 78.8 100% 83 30.06 0.0
15 02:35 SW 6 9.00 Fair CLR 80.6 78.8 94% 88 30.07 0.0
15 02:15 S 6 10.00 Fair CLR 80.6 78.8 94% 88 30.07 0.0
15 01:55 S 7 10.00 Fair CLR 80.6 78.8 94% 88 30.08 0.0
15 01:35 S 7 10.00 Fair CLR 80.6 78.8 94% 88 30.08 0.0
15 01:15 S 7 10.00 Fair CLR 80.6 78.8 94% 88 30.08 0.0
15 00:55 SW 6 10.00 Fair CLR 80.6 78.8 94% 88 30.09 0.0
15 00:35 W 6 10.00 Fair CLR 80.6 78.8 94% 88 30.09 0.0
15 00:15 SW 6 10.00 Fair CLR 80.6 78.8 94% 88 30.09 0.0
14 23:55 SW 7 10.00 Fair CLR 80.6 80.6 100% 89 30.08 0.0
14 23:35 S 6 10.00 Fair CLR 80.6 78.8 94% 88 30.08 0.0
14 23:15 S 7 10.00 Fair CLR 80.6 78.8 94% 88 30.08 0.0
14 22:55 S 8 10.00 Fair CLR 80.6 78.8 94% 88 30.08 0.0
14 22:35 S 7 10.00 Fair CLR 80.6 78.8 94% 88 30.08 0.0
14 22:15 S 6 10.00 Fair CLR 80.6 78.8 94% 88 30.09 0.0
14 21:55 S 3 10.00 Fair CLR 80.6 78.8 94% 88 30.08 0.0
14 21:35 SW 8 10.00 Fair CLR 82.4 78.8 89% 92 30.08 0.0
14 21:15 S 7 10.00 Fair CLR 80.6 78.8 94% 88 30.07 0.0
14 20:55 S 5 10.00 Fair CLR 82.4 78.8 89% 92 30.08 0.0
14 20:35 Calm 10.00 Fair CLR 80.6 78.8 94% 88 30.08 0.0
14 20:15 Calm 10.00 Fair CLR 80.6 78.8 94% 88 30.08 0.0
14 19:55 Calm 10.00 Fair CLR 82.4 77 84% 91 30.09 0.0
14 19:35 Calm 10.00 Fair CLR 82.4 77 84% 91 30.09 0.0
14 19:15 SW 6 10.00 Fair CLR 82.4 75.2 79% 89 30.08 0.0
14 18:55 S 7 10.00 Fair CLR 84.2 73.4 70% 91 30.09 0.0
14 18:35 S 8 10.00 A Few Clouds FEW039 FEW055 84.2 75.2 74% 92 30.09 0.0
14 18:15 SW 15 10.00 Partly Cloudy SCT039 SCT044 SCT055 86 75.2 70% 95 30.09 0.0
14 17:55 SW 5 10.00 A Few Clouds FEW044 89.6 78.8 71% 105 30.09 0.0
14 17:35 Calm 10.00 Fair CLR 89.6 77 67% 103 30.09 0.0
14 17:15 Vrbl 5 10.00 A Few Clouds FEW041 89.6 77 67% 103 30.1 0.0
14 16:55 SW 6 10.00 Fair CLR 91.4 77 63% 105 30.1 0.0
14 16:35 SW 5 9.00 Fair CLR 89.6 78.8 71% 105 30.1 0.0
14 16:15 W 5 10.00 Fair CLR 89.6 78.8 71% 105 30.11 0.0
14 15:55 SW 5 10.00 Fair CLR 91.4 78.8 67% 108 30.11 0.0
14 15:35 W 5 9.00 Fair CLR 91.4 77 63% 105 30.12 0.0
14 15:15 Calm 10.00 A Few Clouds FEW035 FEW040 FEW050 89.6 78.8 71% 105 30.13 0.0
14 14:55 Calm 10.00 Fair CLR 89.6 77 67% 103 30.14 0.0
14 14:35 Calm 10.00 Fair CLR 89.6 77 67% 103 30.14 0.0
14 14:15 W 8 10.00 A Few Clouds FEW034 91.4 78.8 67% 108 30.14 0.0
14 13:55 W 6 10.00 A Few Clouds FEW033 91.4 77 63% 105 30.14 0.0
14 13:35 SW 5 10.00 A Few Clouds FEW035 FEW041 91.4 78.8 67% 108 30.15 0.0
14 13:15 SW 6 10.00 A Few Clouds FEW033 FEW039 89.6 77 67% 103 30.16 0.0
14 12:55 Vrbl 3 10.00 Fair CLR 91.4 77 63% 105 30.16 0.0
14 12:35 Vrbl 3 9.00 Fair CLR 89.6 77 67% 103 30.17 0.0
14 12:15 W 5 10.00 A Few Clouds FEW027 89.6 77 67% 103 30.17 0.0
14 11:55 SW 3 10.00 A Few Clouds FEW025 89.6 78.8 71% 105 30.17 0.0
14 11:35 SW 6 G 12 9.00 Fair CLR 87.8 78.8 75% 102 30.17 0.0
14 11:15 SW 7 10.00 A Few Clouds FEW020 FEW032 FEW038 87.8 80.6 79% 105 30.18 0.0
14 10:55 Vrbl 5 9.00 Partly Cloudy SCT018 SCT024 87.8 80.6 79% 105 30.18 0.0
14 10:35 W 6 9.00 Mostly Cloudy BKN017 BKN021 86 80.6 84% 102 30.18 0.0
14 10:15 W 6 9.00 Partly Cloudy SCT014 86 80.6 84% 102 30.18 0.0
14 09:55 SW 5 9.00 A Few Clouds FEW014 86 80.6 84% 102 30.18 0.0
14 09:35 Calm 9.00 Fair CLR 86 80.6 84% 102 30.18 0.0
14 09:15 Calm 9.00 Fair CLR 84.2 80.6 89% 98 30.18 0.0
14 08:55 Calm 9.00 Fair CLR 82.4 78.8 89% 92 30.18 0.0
14 08:35 Calm 9.00 Fair CLR 78.8 78.8 100% 83 30.18 0.0
14 08:15 Calm 7.00 Fair CLR 78.8 78.8 100% 83 30.18 0.0
14 07:55 Calm 7.00 Fair CLR 77 77 100% 78 30.17 0.0
14 07:35 Calm 7.00 Fair CLR 77 77 100% 78 30.17 0.0
14 07:15 Calm 7.00 Fair CLR 75.2 75.2 100% 73 30.16 0.0
14 06:55 Calm 8.00 Fair CLR 75.2 75.2 100% 73 30.16 0.0
14 06:35 Calm 10.00 Fair CLR 75.2 75.2 100% 73 30.15 0.0
Date Time (cdt) Wind (mph) Vis. (mi.) Weather Sky Cond. Air Dwpt Max. Min. Relative Humidity Wind Chill (°F) Heat Index (°F) altimeter (in) sea level (mb) 1 hr 3 hr 6 hr
6 hour
Temperature (ºF) Pressure Precipitation (in)